Year,Month,Day,Hour,Minute,Value (Times are PST for windgust in km/hr)
2006,06,02,00,00,4.80
2006,06,02,00,01,4.80
2006,06,02,00,02,3.20
2006,06,02,00,03,1.60
2006,06,02,00,04,1.60
2006,06,02,00,05,3.20
2006,06,02,00,06,1.60
2006,06,02,00,07,1.60
2006,06,02,00,08,3.20
2006,06,02,00,09,3.20
2006,06,02,00,10,3.20
2006,06,02,00,11,1.60
2006,06,02,00,12,1.60
2006,06,02,00,13,3.20
2006,06,02,00,14,4.80
2006,06,02,00,15,6.40
2006,06,02,00,16,6.40
2006,06,02,00,17,6.40
2006,06,02,00,18,4.80
2006,06,02,00,19,3.20
2006,06,02,00,20,3.20
2006,06,02,00,21,6.40
2006,06,02,00,22,4.80
2006,06,02,00,23,4.80
2006,06,02,00,24,4.80
2006,06,02,00,25,4.80
2006,06,02,00,26,4.80
2006,06,02,00,27,3.20
2006,06,02,00,28,3.20
2006,06,02,00,29,3.20
2006,06,02,00,30,3.20
2006,06,02,00,31,3.20
2006,06,02,00,32,3.20
2006,06,02,00,33,3.20
2006,06,02,00,34,1.60
2006,06,02,00,35,3.20
2006,06,02,00,36,4.80
2006,06,02,00,37,4.80
2006,06,02,00,38,3.20
2006,06,02,00,39,4.80
2006,06,02,00,40,4.80
2006,06,02,00,41,3.20
2006,06,02,00,42,3.20
2006,06,02,00,43,3.20
2006,06,02,00,44,6.40
2006,06,02,00,45,4.80
2006,06,02,00,46,4.80
2006,06,02,00,47,4.80
2006,06,02,00,48,1.60
2006,06,02,00,49,1.60
2006,06,02,00,50,4.80
2006,06,02,00,51,3.20
2006,06,02,00,52,3.20
2006,06,02,00,53,4.80
2006,06,02,00,54,4.80
2006,06,02,00,55,6.40
2006,06,02,00,56,6.40
2006,06,02,00,57,8.10
2006,06,02,00,58,3.20
2006,06,02,00,59,6.40
2006,06,02,01,00,4.80
2006,06,02,01,01,4.80
2006,06,02,01,02,3.20
2006,06,02,01,03,4.80
2006,06,02,01,04,3.20
2006,06,02,01,05,3.20
2006,06,02,01,06,3.20
2006,06,02,01,07,0.00
2006,06,02,01,08,1.60
2006,06,02,01,09,3.20
2006,06,02,01,10,1.60
2006,06,02,01,11,0.00
2006,06,02,01,12,1.60
2006,06,02,01,13,1.60
2006,06,02,01,14,1.60
2006,06,02,01,15,1.60
2006,06,02,01,16,3.20
2006,06,02,01,17,3.20
2006,06,02,01,18,3.20
2006,06,02,01,19,1.60
2006,06,02,01,20,0.00
2006,06,02,01,21,1.60
2006,06,02,01,22,1.60
2006,06,02,01,23,0.00
2006,06,02,01,24,0.00
2006,06,02,01,25,1.60
2006,06,02,01,26,1.60
2006,06,02,01,27,1.60
2006,06,02,01,28,1.60
2006,06,02,01,29,1.60
2006,06,02,01,30,0.00
2006,06,02,01,31,0.00
2006,06,02,01,32,0.00
2006,06,02,01,33,1.60
2006,06,02,01,34,0.00
2006,06,02,01,35,0.00
2006,06,02,01,36,0.00
2006,06,02,01,37,0.00
2006,06,02,01,38,0.00
2006,06,02,01,39,0.00
2006,06,02,01,40,0.00
2006,06,02,01,41,0.00
2006,06,02,01,42,0.00
2006,06,02,01,43,0.00
2006,06,02,01,44,0.00
2006,06,02,01,45,0.00
2006,06,02,01,46,0.00
2006,06,02,01,47,0.00
2006,06,02,01,48,0.00
2006,06,02,01,49,0.00
2006,06,02,01,50,0.00
2006,06,02,01,51,1.60
2006,06,02,01,52,0.00
2006,06,02,01,53,0.00
2006,06,02,01,54,0.00
2006,06,02,01,55,0.00
2006,06,02,01,56,0.00
2006,06,02,01,57,0.00
2006,06,02,01,58,0.00
2006,06,02,01,59,0.00
2006,06,02,02,00,0.00
2006,06,02,02,01,0.00
2006,06,02,02,02,0.00
2006,06,02,02,03,0.00
2006,06,02,02,04,0.00
2006,06,02,02,05,0.00
2006,06,02,02,06,0.00
2006,06,02,02,07,0.00
2006,06,02,02,08,0.00
2006,06,02,02,09,1.60
2006,06,02,02,10,1.60
2006,06,02,02,11,1.60
2006,06,02,02,12,0.00
2006,06,02,02,13,0.00
2006,06,02,02,14,0.00
2006,06,02,02,15,0.00
2006,06,02,02,16,0.00
2006,06,02,02,17,0.00
2006,06,02,02,18,1.60
2006,06,02,02,19,1.60
2006,06,02,02,20,1.60
2006,06,02,02,21,1.60
2006,06,02,02,22,3.20
2006,06,02,02,23,3.20
2006,06,02,02,24,3.20
2006,06,02,02,25,3.20
2006,06,02,02,26,1.60
2006,06,02,02,27,1.60
2006,06,02,02,28,3.20
2006,06,02,02,29,3.20
2006,06,02,02,30,1.60
2006,06,02,02,31,0.00
2006,06,02,02,32,0.00
2006,06,02,02,33,0.00
2006,06,02,02,34,0.00
2006,06,02,02,35,1.60
2006,06,02,02,36,1.60
2006,06,02,02,37,1.60
2006,06,02,02,38,0.00
2006,06,02,02,39,0.00
2006,06,02,02,40,0.00
2006,06,02,02,41,0.00
2006,06,02,02,42,0.00
2006,06,02,02,43,0.00
2006,06,02,02,44,0.00
2006,06,02,02,45,0.00
2006,06,02,02,46,0.00
2006,06,02,02,47,0.00
2006,06,02,02,48,0.00
2006,06,02,02,49,0.00
2006,06,02,02,50,0.00
2006,06,02,02,51,0.00
2006,06,02,02,52,0.00
2006,06,02,02,53,0.00
2006,06,02,02,54,0.00
2006,06,02,02,55,0.00
2006,06,02,02,56,0.00
2006,06,02,02,57,0.00
2006,06,02,02,58,0.00
2006,06,02,02,59,0.00
2006,06,02,03,00,0.00
2006,06,02,03,01,0.00
2006,06,02,03,02,0.00
2006,06,02,03,03,0.00
2006,06,02,03,04,0.00
2006,06,02,03,05,0.00
2006,06,02,03,06,0.00
2006,06,02,03,07,0.00
2006,06,02,03,08,0.00
2006,06,02,03,09,0.00
2006,06,02,03,10,0.00
2006,06,02,03,11,0.00
2006,06,02,03,12,0.00
2006,06,02,03,13,0.00
2006,06,02,03,14,0.00
2006,06,02,03,15,0.00
2006,06,02,03,16,0.00
2006,06,02,03,17,0.00
2006,06,02,03,18,0.00
2006,06,02,03,19,0.00
2006,06,02,03,20,0.00
2006,06,02,03,21,0.00
2006,06,02,03,22,0.00
2006,06,02,03,23,1.60
2006,06,02,03,24,0.00
2006,06,02,03,25,0.00
2006,06,02,03,26,0.00
2006,06,02,03,27,0.00
2006,06,02,03,28,0.00
2006,06,02,03,29,0.00
2006,06,02,03,30,0.00
2006,06,02,03,31,0.00
2006,06,02,03,32,0.00
2006,06,02,03,33,0.00
2006,06,02,03,34,0.00
2006,06,02,03,35,0.00
2006,06,02,03,36,0.00
2006,06,02,03,37,0.00
2006,06,02,03,38,0.00
2006,06,02,03,39,0.00
2006,06,02,03,40,0.00
2006,06,02,03,41,0.00
2006,06,02,03,42,0.00
2006,06,02,03,43,1.60
2006,06,02,03,44,0.00
2006,06,02,03,45,0.00
2006,06,02,03,46,1.60
2006,06,02,03,47,1.60
2006,06,02,03,48,1.60
2006,06,02,03,49,0.00
2006,06,02,03,50,0.00
2006,06,02,03,51,0.00
2006,06,02,03,52,1.60
2006,06,02,03,53,1.60
2006,06,02,03,54,3.20
2006,06,02,03,55,1.60
2006,06,02,03,56,3.20
2006,06,02,03,57,3.20
2006,06,02,03,58,1.60
2006,06,02,03,59,1.60
2006,06,02,04,00,1.60
2006,06,02,04,01,0.00
2006,06,02,04,02,0.00
2006,06,02,04,03,0.00
2006,06,02,04,04,1.60
2006,06,02,04,05,3.20
2006,06,02,04,06,1.60
2006,06,02,04,07,1.60
2006,06,02,04,08,1.60
2006,06,02,04,09,1.60
2006,06,02,04,10,0.00
2006,06,02,04,11,0.00
2006,06,02,04,12,0.00
2006,06,02,04,13,0.00
2006,06,02,04,14,0.00
2006,06,02,04,15,0.00
2006,06,02,04,16,1.60
2006,06,02,04,17,0.00
2006,06,02,04,18,0.00
2006,06,02,04,19,0.00
2006,06,02,04,20,1.60
2006,06,02,04,21,0.00
2006,06,02,04,22,0.00
2006,06,02,04,23,0.00
2006,06,02,04,24,3.20
2006,06,02,04,25,3.20
2006,06,02,04,26,4.80
2006,06,02,04,27,3.20
2006,06,02,04,28,6.40
2006,06,02,04,29,6.40
2006,06,02,04,30,4.80
2006,06,02,04,31,3.20
2006,06,02,04,32,1.60
2006,06,02,04,33,4.80
2006,06,02,04,34,4.80
2006,06,02,04,35,3.20
2006,06,02,04,36,3.20
2006,06,02,04,37,1.60
2006,06,02,04,38,1.60
2006,06,02,04,39,1.60
2006,06,02,04,40,1.60
2006,06,02,04,41,1.60
2006,06,02,04,42,3.20
2006,06,02,04,43,3.20
2006,06,02,04,44,1.60
2006,06,02,04,45,1.60
2006,06,02,04,46,1.60
2006,06,02,04,47,1.60
2006,06,02,04,48,1.60
2006,06,02,04,49,1.60
2006,06,02,04,50,0.00
2006,06,02,04,51,1.60
2006,06,02,04,52,3.20
2006,06,02,04,53,3.20
2006,06,02,04,54,3.20
2006,06,02,04,55,0.00
2006,06,02,04,56,0.00
2006,06,02,04,57,0.00
2006,06,02,04,58,0.00
2006,06,02,04,59,0.00
2006,06,02,05,00,0.00
2006,06,02,05,01,0.00
2006,06,02,05,02,1.60
2006,06,02,05,03,3.20
2006,06,02,05,04,3.20
2006,06,02,05,05,0.00
2006,06,02,05,06,1.60
2006,06,02,05,07,0.00
2006,06,02,05,08,0.00
2006,06,02,05,09,0.00
2006,06,02,05,10,0.00
2006,06,02,05,11,0.00
2006,06,02,05,12,0.00
2006,06,02,05,13,0.00
2006,06,02,05,14,0.00
2006,06,02,05,15,0.00
2006,06,02,05,16,0.00
2006,06,02,05,17,0.00
2006,06,02,05,18,0.00
2006,06,02,05,19,0.00
2006,06,02,05,20,0.00
2006,06,02,05,21,0.00
2006,06,02,05,22,0.00
2006,06,02,05,23,0.00
2006,06,02,05,24,0.00
2006,06,02,05,25,0.00
2006,06,02,05,26,0.00
2006,06,02,05,27,0.00
2006,06,02,05,28,1.60
2006,06,02,05,29,1.60
2006,06,02,05,30,1.60
2006,06,02,05,31,0.00
2006,06,02,05,32,0.00
2006,06,02,05,33,0.00
2006,06,02,05,34,0.00
2006,06,02,05,35,0.00
2006,06,02,05,36,0.00
2006,06,02,05,37,0.00
2006,06,02,05,38,0.00
2006,06,02,05,39,0.00
2006,06,02,05,40,0.00
2006,06,02,05,41,0.00
2006,06,02,05,42,0.00
2006,06,02,05,43,0.00
2006,06,02,05,44,0.00
2006,06,02,05,45,0.00
2006,06,02,05,46,0.00
2006,06,02,05,47,0.00
2006,06,02,05,48,0.00
2006,06,02,05,49,1.60
2006,06,02,05,50,1.60
2006,06,02,05,51,1.60
2006,06,02,05,52,1.60
2006,06,02,05,53,0.00
2006,06,02,05,54,0.00
2006,06,02,05,55,0.00
2006,06,02,05,56,0.00
2006,06,02,05,57,0.00
2006,06,02,05,58,0.00
2006,06,02,05,59,0.00
2006,06,02,06,00,0.00
2006,06,02,06,01,0.00
2006,06,02,06,02,0.00
2006,06,02,06,03,0.00
2006,06,02,06,04,0.00
2006,06,02,06,05,0.00
2006,06,02,06,06,1.60
2006,06,02,06,07,1.60
2006,06,02,06,08,0.00
2006,06,02,06,09,0.00
2006,06,02,06,10,0.00
2006,06,02,06,11,0.00
2006,06,02,06,12,0.00
2006,06,02,06,13,0.00
2006,06,02,06,14,0.00
2006,06,02,06,15,0.00
2006,06,02,06,16,0.00
2006,06,02,06,17,0.00
2006,06,02,06,18,0.00
2006,06,02,06,19,1.60
2006,06,02,06,20,0.00
2006,06,02,06,21,0.00
2006,06,02,06,22,1.60
2006,06,02,06,23,1.60
2006,06,02,06,24,1.60
2006,06,02,06,25,1.60
2006,06,02,06,26,0.00
2006,06,02,06,27,0.00
2006,06,02,06,28,1.60
2006,06,02,06,29,3.20
2006,06,02,06,30,3.20
2006,06,02,06,31,3.20
2006,06,02,06,32,3.20
2006,06,02,06,33,1.60
2006,06,02,06,34,1.60
2006,06,02,06,35,1.60
2006,06,02,06,36,1.60
2006,06,02,06,37,1.60
2006,06,02,06,38,3.20
2006,06,02,06,39,3.20
2006,06,02,06,40,3.20
2006,06,02,06,41,1.60
2006,06,02,06,42,0.00
2006,06,02,06,43,0.00
2006,06,02,06,44,0.00
2006,06,02,06,45,1.60
2006,06,02,06,46,0.00
2006,06,02,06,47,0.00
2006,06,02,06,48,0.00
2006,06,02,06,49,0.00
2006,06,02,06,50,0.00
2006,06,02,06,51,0.00
2006,06,02,06,52,0.00
2006,06,02,06,53,0.00
2006,06,02,06,54,0.00
2006,06,02,06,55,0.00
2006,06,02,06,56,1.60
2006,06,02,06,57,3.20
2006,06,02,06,58,1.60
2006,06,02,06,59,1.60
2006,06,02,07,00,1.60
2006,06,02,07,01,0.00
2006,06,02,07,02,0.00
2006,06,02,07,03,1.60
2006,06,02,07,04,1.60
2006,06,02,07,05,3.20
2006,06,02,07,06,3.20
2006,06,02,07,07,3.20
2006,06,02,07,08,1.60
2006,06,02,07,09,3.20
2006,06,02,07,10,3.20
2006,06,02,07,11,3.20
2006,06,02,07,12,1.60
2006,06,02,07,13,1.60
2006,06,02,07,14,1.60
2006,06,02,07,15,1.60
2006,06,02,07,16,1.60
2006,06,02,07,17,1.60
2006,06,02,07,18,1.60
2006,06,02,07,19,1.60
2006,06,02,07,20,1.60
2006,06,02,07,21,1.60
2006,06,02,07,22,1.60
2006,06,02,07,23,0.00
2006,06,02,07,24,1.60
2006,06,02,07,25,1.60
2006,06,02,07,26,1.60
2006,06,02,07,27,1.60
2006,06,02,07,28,1.60
2006,06,02,07,29,1.60
2006,06,02,07,30,1.60
2006,06,02,07,31,1.60
2006,06,02,07,32,0.00
2006,06,02,07,33,1.60
2006,06,02,07,34,3.20
2006,06,02,07,35,4.80
2006,06,02,07,36,6.40
2006,06,02,07,37,4.80
2006,06,02,07,38,4.80
2006,06,02,07,39,4.80
2006,06,02,07,40,3.20
2006,06,02,07,41,1.60
2006,06,02,07,42,4.80
2006,06,02,07,43,3.20
2006,06,02,07,44,1.60
2006,06,02,07,45,3.20
2006,06,02,07,46,1.60
2006,06,02,07,47,6.40
2006,06,02,07,48,6.40
2006,06,02,07,49,3.20
2006,06,02,07,50,1.60
2006,06,02,07,51,3.20
2006,06,02,07,52,4.80
2006,06,02,07,53,6.40
2006,06,02,07,54,6.40
2006,06,02,07,55,4.80
2006,06,02,07,56,4.80
2006,06,02,07,57,6.40
2006,06,02,07,58,6.40
2006,06,02,07,59,4.80
2006,06,02,08,00,3.20
2006,06,02,08,01,3.20
2006,06,02,08,02,3.20
2006,06,02,08,03,1.60
2006,06,02,08,04,3.20
2006,06,02,08,05,3.20
2006,06,02,08,06,3.20
2006,06,02,08,07,1.60
2006,06,02,08,08,3.20
2006,06,02,08,09,4.80
2006,06,02,08,10,3.20
2006,06,02,08,11,3.20
2006,06,02,08,12,1.60
2006,06,02,08,13,1.60
2006,06,02,08,14,3.20
2006,06,02,08,15,6.40
2006,06,02,08,16,3.20
2006,06,02,08,17,3.20
2006,06,02,08,18,3.20
2006,06,02,08,19,3.20
2006,06,02,08,20,1.60
2006,06,02,08,21,3.20
2006,06,02,08,22,1.60
2006,06,02,08,23,1.60
2006,06,02,08,24,1.60
2006,06,02,08,25,1.60
2006,06,02,08,26,1.60
2006,06,02,08,27,4.80
2006,06,02,08,28,4.80
2006,06,02,08,29,0.00
2006,06,02,08,30,1.60
2006,06,02,08,31,3.20
2006,06,02,08,32,3.20
2006,06,02,08,33,6.40
2006,06,02,08,34,6.40
2006,06,02,08,35,6.40
2006,06,02,08,36,3.20
2006,06,02,08,37,6.40
2006,06,02,08,38,6.40
2006,06,02,08,39,6.40
2006,06,02,08,40,4.80
2006,06,02,08,41,4.80
2006,06,02,08,42,1.60
2006,06,02,08,43,1.60
2006,06,02,08,44,0.00
2006,06,02,08,45,0.00
2006,06,02,08,46,0.00
2006,06,02,08,47,0.00
2006,06,02,08,48,0.00
2006,06,02,08,49,0.00
2006,06,02,08,50,0.00
2006,06,02,08,51,1.60
2006,06,02,08,52,0.00
2006,06,02,08,53,1.60
2006,06,02,08,54,3.20
2006,06,02,08,55,3.20
2006,06,02,08,56,1.60
2006,06,02,08,57,1.60
2006,06,02,08,58,0.00
2006,06,02,08,59,0.00
2006,06,02,09,00,0.00
2006,06,02,09,01,0.00
2006,06,02,09,02,0.00
2006,06,02,09,03,0.00
2006,06,02,09,04,1.60
2006,06,02,09,05,0.00
2006,06,02,09,06,0.00
2006,06,02,09,07,0.00
2006,06,02,09,08,0.00
2006,06,02,09,09,0.00
2006,06,02,09,10,1.60
2006,06,02,09,11,1.60
2006,06,02,09,12,3.20
2006,06,02,09,13,0.00
2006,06,02,09,14,4.80
2006,06,02,09,15,4.80
2006,06,02,09,16,1.60
2006,06,02,09,17,0.00
2006,06,02,09,18,1.60
2006,06,02,09,19,1.60
2006,06,02,09,20,3.20
2006,06,02,09,21,1.60
2006,06,02,09,22,1.60
2006,06,02,09,23,0.00
2006,06,02,09,24,1.60
2006,06,02,09,25,1.60
2006,06,02,09,26,1.60
2006,06,02,09,27,3.20
2006,06,02,09,28,4.80
2006,06,02,09,29,3.20
2006,06,02,09,30,4.80
2006,06,02,09,31,6.40
2006,06,02,09,32,4.80
2006,06,02,09,33,6.40
2006,06,02,09,34,4.80
2006,06,02,09,35,1.60
2006,06,02,09,36,1.60
2006,06,02,09,37,3.20
2006,06,02,09,38,3.20
2006,06,02,09,39,3.20
2006,06,02,09,40,3.20
2006,06,02,09,41,4.80
2006,06,02,09,42,1.60
2006,06,02,09,43,1.60
2006,06,02,09,44,1.60
2006,06,02,09,45,3.20
2006,06,02,09,46,1.60
2006,06,02,09,47,1.60
2006,06,02,09,48,1.60
2006,06,02,09,49,3.20
2006,06,02,09,50,3.20
2006,06,02,09,51,3.20
2006,06,02,09,52,3.20
2006,06,02,09,53,3.20
2006,06,02,09,54,1.60
2006,06,02,09,55,1.60
2006,06,02,09,56,3.20
2006,06,02,09,57,3.20
2006,06,02,09,58,1.60
2006,06,02,09,59,0.00
2006,06,02,10,00,0.00
2006,06,02,10,01,3.20
2006,06,02,10,02,3.20
2006,06,02,10,03,0.00
2006,06,02,10,04,0.00
2006,06,02,10,05,1.60
2006,06,02,10,06,1.60
2006,06,02,10,07,1.60
2006,06,02,10,08,0.00
2006,06,02,10,09,0.00
2006,06,02,10,10,1.60
2006,06,02,10,11,4.80
2006,06,02,10,12,6.40
2006,06,02,10,13,1.60
2006,06,02,10,14,1.60
2006,06,02,10,15,0.00
2006,06,02,10,16,4.80
2006,06,02,10,17,4.80
2006,06,02,10,18,0.00
2006,06,02,10,19,4.80
2006,06,02,10,20,3.20
2006,06,02,10,21,4.80
2006,06,02,10,22,3.20
2006,06,02,10,23,9.60
2006,06,02,10,24,6.40
2006,06,02,10,25,3.20
2006,06,02,10,26,6.40
2006,06,02,10,27,8.10
2006,06,02,10,28,4.80
2006,06,02,10,29,3.20
2006,06,02,10,30,4.80
2006,06,02,10,31,3.20
2006,06,02,10,32,3.20
2006,06,02,10,33,3.20
2006,06,02,10,34,4.80
2006,06,02,10,35,4.80
2006,06,02,10,36,4.80
2006,06,02,10,37,4.80
2006,06,02,10,38,6.40
2006,06,02,10,39,3.20
2006,06,02,10,40,3.20
2006,06,02,10,41,4.80
2006,06,02,10,42,8.10
2006,06,02,10,43,9.60
2006,06,02,10,44,3.20
2006,06,02,10,45,4.80
2006,06,02,10,46,3.20
2006,06,02,10,47,4.80
2006,06,02,10,48,3.20
2006,06,02,10,49,4.80
2006,06,02,10,50,1.60
2006,06,02,10,51,1.60
2006,06,02,10,52,3.20
2006,06,02,10,53,3.20
2006,06,02,10,54,6.40
2006,06,02,10,55,1.60
2006,06,02,10,56,6.40
2006,06,02,10,57,3.20
2006,06,02,10,58,9.60
2006,06,02,10,59,9.60
2006,06,02,11,00,9.60
2006,06,02,11,01,8.10
2006,06,02,11,02,6.40
2006,06,02,11,03,4.80
2006,06,02,11,04,8.10
2006,06,02,11,05,8.10
2006,06,02,11,06,6.40
2006,06,02,11,07,8.10
2006,06,02,11,08,9.60
2006,06,02,11,09,6.40
2006,06,02,11,10,3.20
2006,06,02,11,11,3.20
2006,06,02,11,12,3.20
2006,06,02,11,13,4.80
2006,06,02,11,14,4.80
2006,06,02,11,15,4.80
2006,06,02,11,16,4.80
2006,06,02,11,17,3.20
2006,06,02,11,18,6.40
2006,06,02,11,19,9.60
2006,06,02,11,20,6.40
2006,06,02,11,21,3.20
2006,06,02,11,22,4.80
2006,06,02,11,23,8.10
2006,06,02,11,24,8.10
2006,06,02,11,25,4.80
2006,06,02,11,26,3.20
2006,06,02,11,27,3.20
2006,06,02,11,28,3.20
2006,06,02,11,29,3.20
2006,06,02,11,30,1.60
2006,06,02,11,31,4.80
2006,06,02,11,32,3.20
2006,06,02,11,33,4.80
2006,06,02,11,34,6.40
2006,06,02,11,35,3.20
2006,06,02,11,36,3.20
2006,06,02,11,37,4.80
2006,06,02,11,38,4.80
2006,06,02,11,39,3.20
2006,06,02,11,40,8.10
2006,06,02,11,41,1.60
2006,06,02,11,42,3.20
2006,06,02,11,43,3.20
2006,06,02,11,44,1.60
2006,06,02,11,45,3.20
2006,06,02,11,46,1.60
2006,06,02,11,47,3.20
2006,06,02,11,48,4.80
2006,06,02,11,49,4.80
2006,06,02,11,50,6.40
2006,06,02,11,51,6.40
2006,06,02,11,52,6.40
2006,06,02,11,53,6.40
2006,06,02,11,54,4.80
2006,06,02,11,55,3.20
2006,06,02,11,56,8.10
2006,06,02,11,57,8.10
2006,06,02,11,58,6.40
2006,06,02,11,59,4.80
2006,06,02,12,00,4.80
2006,06,02,12,01,3.20
2006,06,02,12,02,3.20
2006,06,02,12,03,3.20
2006,06,02,12,04,3.20
2006,06,02,12,05,3.20
2006,06,02,12,06,3.20
2006,06,02,12,07,3.20
2006,06,02,12,08,1.60
2006,06,02,12,09,3.20
2006,06,02,12,10,3.20
2006,06,02,12,11,3.20
2006,06,02,12,12,1.60
2006,06,02,12,13,3.20
2006,06,02,12,14,1.60
2006,06,02,12,15,4.80
2006,06,02,12,16,6.40
2006,06,02,12,17,4.80
2006,06,02,12,18,4.80
2006,06,02,12,19,1.60
2006,06,02,12,20,4.80
2006,06,02,12,21,4.80
2006,06,02,12,22,3.20
2006,06,02,12,23,3.20
2006,06,02,12,24,4.80
2006,06,02,12,25,4.80
2006,06,02,12,26,6.40
2006,06,02,12,27,4.80
2006,06,02,12,28,4.80
2006,06,02,12,29,4.80
2006,06,02,12,30,6.40
2006,06,02,12,31,3.20
2006,06,02,12,32,6.40
2006,06,02,12,33,4.80
2006,06,02,12,34,1.60
2006,06,02,12,35,3.20
2006,06,02,12,36,1.60
2006,06,02,12,37,3.20
2006,06,02,12,38,3.20
2006,06,02,12,39,1.60
2006,06,02,12,40,4.80
2006,06,02,12,41,8.10
2006,06,02,12,42,4.80
2006,06,02,12,43,4.80
2006,06,02,12,44,4.80
2006,06,02,12,45,4.80
2006,06,02,12,46,6.40
2006,06,02,12,47,6.40
2006,06,02,12,48,6.40
2006,06,02,12,49,8.10
2006,06,02,12,50,3.20
2006,06,02,12,51,1.60
2006,06,02,12,52,4.80
2006,06,02,12,53,9.60
2006,06,02,12,54,4.80
2006,06,02,12,55,11.30
2006,06,02,12,56,11.30
2006,06,02,12,57,11.30
2006,06,02,12,58,19.30
2006,06,02,12,59,16.10
2006,06,02,13,00,14.50
2006,06,02,13,01,9.60
2006,06,02,13,02,4.80
2006,06,02,13,03,6.40
2006,06,02,13,04,8.10
2006,06,02,13,05,11.30
2006,06,02,13,06,9.60
2006,06,02,13,07,9.60
2006,06,02,13,08,9.60
2006,06,02,13,09,9.60
2006,06,02,13,10,8.10
2006,06,02,13,11,9.60
2006,06,02,13,12,14.50
2006,06,02,13,13,17.70
2006,06,02,13,14,16.10
2006,06,02,13,15,9.60
2006,06,02,13,16,12.90
2006,06,02,13,17,14.50
2006,06,02,13,18,8.10
2006,06,02,13,19,9.60
2006,06,02,13,20,9.60
2006,06,02,13,21,9.60
2006,06,02,13,22,9.60
2006,06,02,13,23,8.10
2006,06,02,13,24,6.40
2006,06,02,13,25,9.60
2006,06,02,13,26,6.40
2006,06,02,13,27,9.60
2006,06,02,13,28,11.30
2006,06,02,13,29,9.60
2006,06,02,13,30,11.30
2006,06,02,13,31,11.30
2006,06,02,13,32,8.10
2006,06,02,13,33,8.10
2006,06,02,13,34,11.30
2006,06,02,13,35,9.60
2006,06,02,13,36,11.30
2006,06,02,13,37,8.10
2006,06,02,13,38,3.20
2006,06,02,13,39,8.10
2006,06,02,13,40,6.40
2006,06,02,13,41,4.80
2006,06,02,13,42,1.60
2006,06,02,13,43,4.80
2006,06,02,13,44,4.80
2006,06,02,13,45,4.80
2006,06,02,13,46,3.20
2006,06,02,13,47,3.20
2006,06,02,13,48,1.60
2006,06,02,13,49,3.20
2006,06,02,13,50,3.20
2006,06,02,13,51,1.60
2006,06,02,13,52,3.20
2006,06,02,13,53,3.20
2006,06,02,13,54,3.20
2006,06,02,13,55,3.20
2006,06,02,13,56,4.80
2006,06,02,13,57,4.80
2006,06,02,13,58,8.10
2006,06,02,13,59,11.30
2006,06,02,14,00,9.60
2006,06,02,14,01,6.40
2006,06,02,14,02,8.10
2006,06,02,14,03,6.40
2006,06,02,14,04,6.40
2006,06,02,14,05,9.60
2006,06,02,14,06,1.60
2006,06,02,14,07,11.30
2006,06,02,14,08,4.80
2006,06,02,14,09,4.80
2006,06,02,14,10,4.80
2006,06,02,14,11,3.20
2006,06,02,14,12,1.60
2006,06,02,14,13,4.80
2006,06,02,14,14,3.20
2006,06,02,14,15,8.10
2006,06,02,14,16,6.40
2006,06,02,14,17,4.80
2006,06,02,14,18,12.90
2006,06,02,14,19,9.60
2006,06,02,14,20,14.50
2006,06,02,14,21,9.60
2006,06,02,14,22,14.50
2006,06,02,14,23,17.70
2006,06,02,14,24,6.40
2006,06,02,14,25,11.30
2006,06,02,14,26,9.60
2006,06,02,14,27,8.10
2006,06,02,14,28,8.10
2006,06,02,14,29,8.10
2006,06,02,14,30,6.40
2006,06,02,14,31,8.10
2006,06,02,14,32,4.80
2006,06,02,14,33,3.20
2006,06,02,14,34,3.20
2006,06,02,14,35,8.10
2006,06,02,14,36,6.40
2006,06,02,14,37,3.20
2006,06,02,14,38,4.80
2006,06,02,14,39,4.80
2006,06,02,14,40,3.20
2006,06,02,14,41,4.80
2006,06,02,14,42,6.40
2006,06,02,14,43,6.40
2006,06,02,14,44,4.80
2006,06,02,14,45,8.10
2006,06,02,14,46,6.40
2006,06,02,14,47,1.60
2006,06,02,14,48,4.80
2006,06,02,14,49,4.80
2006,06,02,14,50,6.40
2006,06,02,14,51,16.10
2006,06,02,14,52,20.90
2006,06,02,14,53,8.10
2006,06,02,14,54,14.50
2006,06,02,14,55,17.70
2006,06,02,14,56,24.20
2006,06,02,14,57,16.10
2006,06,02,14,58,17.70
2006,06,02,14,59,17.70
2006,06,02,15,00,17.70
2006,06,02,15,01,24.20
2006,06,02,15,02,20.90
2006,06,02,15,03,17.70
2006,06,02,15,04,22.50
2006,06,02,15,05,16.10
2006,06,02,15,06,11.30
2006,06,02,15,07,9.60
2006,06,02,15,08,8.10
2006,06,02,15,09,8.10
2006,06,02,15,10,9.60
2006,06,02,15,11,9.60
2006,06,02,15,12,19.30
2006,06,02,15,13,9.60
2006,06,02,15,14,19.30
2006,06,02,15,15,19.30
2006,06,02,15,16,14.50
2006,06,02,15,17,20.90
2006,06,02,15,18,19.30
2006,06,02,15,19,19.30
2006,06,02,15,20,17.70
2006,06,02,15,21,22.50
2006,06,02,15,22,24.20
2006,06,02,15,23,19.30
2006,06,02,15,24,9.60
2006,06,02,15,25,19.30
2006,06,02,15,26,19.30
2006,06,02,15,27,24.20
2006,06,02,15,28,25.70
2006,06,02,15,29,24.20
2006,06,02,15,30,19.30
2006,06,02,15,31,20.90
2006,06,02,15,32,16.10
2006,06,02,15,33,6.40
2006,06,02,15,34,16.10
2006,06,02,15,35,19.30
2006,06,02,15,36,19.30
2006,06,02,15,37,16.10
2006,06,02,15,38,11.30
2006,06,02,15,39,22.50
2006,06,02,15,40,20.90
2006,06,02,15,41,29.00
2006,06,02,15,42,24.20
2006,06,02,15,43,29.00
2006,06,02,15,44,25.70
2006,06,02,15,45,27.40
2006,06,02,15,46,29.00
2006,06,02,15,47,38.60
2006,06,02,15,48,25.70
2006,06,02,15,49,20.90
2006,06,02,15,50,27.40
2006,06,02,15,51,22.50
2006,06,02,15,52,48.30
2006,06,02,15,53,22.50
2006,06,02,15,54,22.50
2006,06,02,15,55,19.30
2006,06,02,15,56,38.60
2006,06,02,15,57,35.40
2006,06,02,15,58,22.50
2006,06,02,15,59,20.90
2006,06,02,16,00,29.00
2006,06,02,16,01,25.70
2006,06,02,16,02,19.30
2006,06,02,16,03,20.90
2006,06,02,16,04,8.10
2006,06,02,16,05,29.00
2006,06,02,16,06,32.20
2006,06,02,16,07,22.50
2006,06,02,16,08,37.00
2006,06,02,16,09,25.70
2006,06,02,16,10,24.20
2006,06,02,16,11,14.50
2006,06,02,16,12,33.80
2006,06,02,16,13,30.60
2006,06,02,16,14,27.40
2006,06,02,16,15,33.80
2006,06,02,16,16,25.70
2006,06,02,16,17,25.70
2006,06,02,16,18,30.60
2006,06,02,16,19,19.30
2006,06,02,16,20,12.90
2006,06,02,16,21,24.20
2006,06,02,16,22,22.50
2006,06,02,16,23,20.90
2006,06,02,16,24,49.90
2006,06,02,16,25,25.70
2006,06,02,16,26,20.90
2006,06,02,16,27,11.30
2006,06,02,16,28,25.70
2006,06,02,16,29,45.10
2006,06,02,16,30,33.80
2006,06,02,16,31,25.70
2006,06,02,16,32,33.80
2006,06,02,16,33,22.50
2006,06,02,16,34,27.40
2006,06,02,16,35,24.20
2006,06,02,16,36,22.50
2006,06,02,16,37,20.90
2006,06,02,16,38,29.00
2006,06,02,16,39,17.70
2006,06,02,16,40,17.70
2006,06,02,16,41,22.50
2006,06,02,16,42,22.50
2006,06,02,16,43,37.00
2006,06,02,16,44,37.00
2006,06,02,16,45,32.20
2006,06,02,16,46,24.20
2006,06,02,16,47,22.50
2006,06,02,16,48,32.20
2006,06,02,16,49,27.40
2006,06,02,16,50,27.40
2006,06,02,16,51,22.50
2006,06,02,16,52,35.40
2006,06,02,16,53,30.60
2006,06,02,16,54,35.40
2006,06,02,16,55,35.40
2006,06,02,16,56,45.10
2006,06,02,16,57,48.30
2006,06,02,16,58,40.20
2006,06,02,16,59,19.30
2006,06,02,17,00,35.40
2006,06,02,17,01,43.50
2006,06,02,17,02,51.50
2006,06,02,17,03,40.20
2006,06,02,17,04,49.90
2006,06,02,17,05,43.50
2006,06,02,17,06,29.00
2006,06,02,17,07,40.20
2006,06,02,17,08,45.10
2006,06,02,17,09,40.20
2006,06,02,17,10,25.70
2006,06,02,17,11,16.10
2006,06,02,17,12,27.40
2006,06,02,17,13,29.00
2006,06,02,17,14,27.40
2006,06,02,17,15,32.20
2006,06,02,17,16,37.00
2006,06,02,17,17,27.40
2006,06,02,17,18,24.20
2006,06,02,17,19,45.10
2006,06,02,17,20,37.00
2006,06,02,17,21,41.80
2006,06,02,17,22,35.40
2006,06,02,17,23,29.00
2006,06,02,17,24,29.00
2006,06,02,17,25,25.70
2006,06,02,17,26,38.60
2006,06,02,17,27,29.00
2006,06,02,17,28,25.70
2006,06,02,17,29,24.20
2006,06,02,17,30,17.70
2006,06,02,17,31,11.30
2006,06,02,17,32,29.00
2006,06,02,17,33,45.10
2006,06,02,17,34,29.00
2006,06,02,17,35,17.70
2006,06,02,17,36,20.90
2006,06,02,17,37,35.40
2006,06,02,17,38,30.60
2006,06,02,17,39,20.90
2006,06,02,17,40,20.90
2006,06,02,17,41,33.80
2006,06,02,17,42,24.20
2006,06,02,17,43,24.20
2006,06,02,17,44,27.40
2006,06,02,17,45,35.40
2006,06,02,17,46,35.40
2006,06,02,17,47,29.00
2006,06,02,17,48,41.80
2006,06,02,17,49,29.00
2006,06,02,17,50,33.80
2006,06,02,17,51,62.70
2006,06,02,17,52,33.80
2006,06,02,17,53,29.00
2006,06,02,17,54,32.20
2006,06,02,17,55,32.20
2006,06,02,17,56,35.40
2006,06,02,17,57,45.10